Retour au catalogue

STARLINK-36115

ActifCommunicationsVLEO
NORAD 66946·PAYLOAD·🇺🇸 United States

Lancé Dec 7, 2025 depuis Vandenberg Space Force Base

Loading…

Prochains Passages (prochaines 24 heures)

TLE

FraisSource: CelesTrak SupGP

Époque: Sep 14, 2026, 22:37 UTC

1 66946C 25286X   26257.94284722 -.00026371  00000+0 -77889-3 0  2573
2 66946  53.1577 195.7018 0001330  91.2453 291.3734 15.34414179    12

Suivez STARLINK-36115 en temps réel avec AllMySat

Download on the App Store